Location: Apeadero de Los Molinos-Guadarrama
(40.7091°N, 4.0689°W)
Time: 09:28:56
(UTC+00:00)

Cosmos 1709 Rocket - Pass Details

Date: 14 May 2021
Orbit: 948 x 1002 km, 82.9° (Epoch: 20 June)

Event Time Altitude Azimuth Distance (km) Brightness Sun altitude
Rises 20:33:32 0° 353° (N) 3,630 7.7 -11.7°
Reaches altitude 10° 20:36:02 10° 354° (N) 2,679 7.0 -12.1°
Maximum altitude 20:42:09 84° 83° (E) 959 3.9 -13.0°
Drops below altitude 10° 20:48:16 10° 172° (S) 2,670 5.9 -13.9°
Enters shadow 20:48:25 - 172° (S) 2,727 5.9 -13.9°
